Location: Newark
(13.6797°N, 8.5297°E)
Time: 17:57:13
(UTC+00:00)

Altair - Pass Details

Date: 01 February 2020
Orbit: 1502 x 1682 km, 47.2° (Epoch: 22 February)

Event Time Altitude Azimuth Distance (km) Brightness Sun altitude
Rises 06:52:28 0° 282° (WNW) 4,824 9.5 12.8°
Reaches altitude 10° 06:58:17 10° 308° (NW) 3,878 9.1 14.1°
Maximum altitude 07:02:17 13° 333° (NNW) 3,673 9.1 15.0°
Drops below altitude 10° 07:06:19 10° 357° (N) 3,919 9.4 15.9°
Sets 07:12:21 0° 24° (NNE) 4,925 10.2 17.2°
